User: anonymous   Login
Location: Unspecified
(0.0000°N, 0.0000°E)
Time: 14:31:44
(UTC+00:00)
Language:

HTV - Orbit

View from above orbital plane
View from above orbital plane
View from above satellite
View from above satellite

Ground track
Ground track

The orbit data is extracted from the following two-line orbital elements,

1 35817U 09048A   09304.84133102 +.00028274 +00000-0 +17038-3 0 00696
2 35817 051.6444 324.9714 0005891 275.3114 075.7005 15.77431814008054
Epoch (UTC): 31 October 2009 20:11:31
Eccentricity: 0.0005891
inclination: 51.6444°
perigee height: 334 km
apogee height: 341 km
right ascension of ascending node: 324.9714°
argument of perigee: 275.3114°
revolutions per day: 15.77431814
mean anomaly at epoch: 75.7005°
orbit number at epoch: 805

The dashed part of the orbit path shows where the satellite is in the earth's shadow,  

DLR